Alcoa, TN

9:03 PM EDT on August 31, 2016 (GMT -0400)
McGhee Tyson

Weather History for KTYS - April, 2013

Change the Weather History Date:

Monday, April 29, 2013

  Actual Average Record
Temperature  
Mean Temperature 63 °F 63 °F  
Max Temperature 73 °F 74 °F 88 °F (1872)
Min Temperature 53 °F 51 °F 33 °F (1992)
Degree Days  
Heating Degree Days 2 4  
Month to date heating degree days 220 215  
Since 1 July heating degree days 3555 3572  
Cooling Degree Days 0 2  
Month to date cooling degree days 27 31  
Year to date cooling degree days 31 36  
Growing Degree Days 13 (Base 50)    
Moisture  
Dew Point 54 °F    
Average Humidity 74    
Maximum Humidity 100    
Minimum Humidity 47    
Precipitation  
Precipitation 0.00 in 0.14 in 1.55 in (1963)
Month to date precipitation 7.32 3.88  
Year to date precipitation 27.90 16.80  
Snow  
Snow 0.00 in 0.00 in - ()
Month to date snowfall 0.0 0.5  
Since 1 July snowfall 3.8 6.5  
Snow Depth 0.00 in    
Sea Level Pressure  
Sea Level Pressure 29.99 in    
Wind  
Wind Speed 4 mph (WNW)    
Max Wind Speed 12 mph    
Max Gust Speed 15 mph    
Visibility 7 miles    
Events      
T = Trace of Precipitation, MM = Missing Value Source: NWS Daily Summary

Daily Weather History Graph

Daily Weather History Graph

Search for Another Location

Airport or City:

Trip Planner

Search our weather history database for the weather conditions in past years. The results will help you decide how hot, cold, wet, or windy it might be!

Date:

Astronomy

Apr. 29, 2013 Rise Set
Actual Time 6:45 AM EDT 8:21 PM EDT
Civil Twilight 6:18 AM EDT 8:48 PM EDT
Nautical Twilight 5:45 AM EDT 9:21 PM EDT
Astronomical Twilight 5:11 AM EDT 9:56 PM EDT
Moon No Moon Rise 10:08 AM EDT (4/29)
Length of Visible Light 14h 30m
Length of Day
13h 35m
Waning Gibbous, 80% of the Moon is Illuminated
Apr 29
Waning Gibbous
May 2
Last Quarter
May 9
New
May 18
First Quarter
May 25
Full

Hourly Weather History & Observations

Time (EDT) Temp. Dew Point Humidity Pressure Visibility Wind Dir Wind Speed Gust Speed Precip Events Conditions
12:45 AM 53.6 °F 53.6 °F 100% 29.98 in 6.0 mi ENE 3.5 mph - N/A   Scattered Clouds
12:53 AM 53.1 °F 52.0 °F 96% 29.97 in 4.0 mi NNE 4.6 mph - N/A   Scattered Clouds
1:53 AM 55.0 °F 54.0 °F 96% 29.98 in 10.0 mi Calm Calm - N/A   Overcast
2:53 AM 55.0 °F 54.0 °F 96% 29.97 in 10.0 mi Calm Calm - N/A   Overcast
3:53 AM 54.0 °F 53.1 °F 97% 29.97 in 6.0 mi Calm Calm - N/A   Overcast
4:53 AM 55.0 °F 54.0 °F 96% 29.96 in 10.0 mi Calm Calm - N/A   Mostly Cloudy
5:37 AM 53.6 °F 53.6 °F 100% 29.98 in 6.0 mi Calm Calm - N/A   Overcast
5:53 AM 54.0 °F 53.1 °F 97% 29.98 in 3.0 mi Calm Calm - N/A   Mostly Cloudy
6:28 AM 53.6 °F 53.6 °F 100% 30.00 in 2.0 mi Calm Calm - N/A   Mostly Cloudy
6:44 AM 53.6 °F 53.6 °F 100% 30.00 in 4.0 mi Calm Calm - N/A   Overcast
6:53 AM 54.0 °F 53.1 °F 97% 29.99 in 5.0 mi Calm Calm - N/A   Overcast
7:53 AM 54.0 °F 54.0 °F 100% 30.01 in 1.0 mi WNW 3.5 mph - N/A   Mostly Cloudy
8:05 AM 55.4 °F 55.4 °F 100% 30.02 in 1.5 mi Calm Calm - N/A   Mostly Cloudy
8:11 AM 55.4 °F 55.4 °F 100% 30.02 in 3.0 mi Calm Calm - N/A   Mostly Cloudy
8:20 AM 55.4 °F 55.4 °F 100% 30.02 in 2.5 mi Calm Calm - N/A   Mostly Cloudy
8:23 AM 57.2 °F 55.4 °F 94% 30.02 in 2.5 mi Calm Calm - N/A   Mostly Cloudy
8:53 AM 57.9 °F 55.0 °F 90% 30.01 in 2.5 mi WSW 3.5 mph - N/A   Mostly Cloudy
9:25 AM 59.0 °F 55.4 °F 88% 30.03 in 2.5 mi West 5.8 mph - N/A   Scattered Clouds
9:32 AM 59.0 °F 55.4 °F 88% 30.03 in 5.0 mi West 4.6 mph - N/A   Scattered Clouds
9:53 AM 59.0 °F 55.0 °F 87% 30.02 in 7.0 mi West 6.9 mph - N/A   Mostly Cloudy
10:14 AM 60.8 °F 55.4 °F 82% 30.03 in 10.0 mi WSW 4.6 mph - N/A   Mostly Cloudy
10:39 AM 60.8 °F 55.4 °F 82% 30.04 in 10.0 mi West 8.1 mph - N/A   Overcast
10:53 AM 61.0 °F 55.0 °F 81% 30.03 in 10.0 mi West 6.9 mph - N/A   Overcast
11:18 AM 62.6 °F 55.4 °F 77% 30.04 in 10.0 mi West 8.1 mph - N/A   Mostly Cloudy
11:53 AM 64.0 °F 55.9 °F 75% 30.03 in 10.0 mi WNW 6.9 mph - N/A   Overcast
12:53 PM 66.0 °F 55.9 °F 70% 30.02 in 10.0 mi WSW 10.4 mph - N/A   Mostly Cloudy
1:53 PM 68.0 °F 55.0 °F 63% 29.99 in 10.0 mi West 6.9 mph - N/A   Scattered Clouds
2:53 PM 69.1 °F 54.0 °F 58% 29.98 in 10.0 mi Variable 6.9 mph - N/A   Scattered Clouds
3:53 PM 71.1 °F 52.0 °F 51% 29.95 in 10.0 mi WNW 5.8 mph - N/A   Scattered Clouds
4:53 PM 72.0 °F 51.1 °F 48% 29.93 in 10.0 mi WNW 8.1 mph - N/A   Scattered Clouds
5:53 PM 72.0 °F 50.0 °F 46% 29.92 in 10.0 mi Calm Calm - N/A   Scattered Clouds
6:53 PM 72.0 °F 50.0 °F 46% 29.92 in 10.0 mi Calm Calm - N/A   Scattered Clouds
7:53 PM 70.0 °F 50.0 °F 49% 29.92 in 10.0 mi WNW 3.5 mph - N/A   Partly Cloudy
8:53 PM 63.0 °F 52.0 °F 67% 29.94 in 10.0 mi North 8.1 mph - N/A   Partly Cloudy
9:53 PM 63.0 °F 54.0 °F 72% 29.96 in 10.0 mi NNE 5.8 mph - N/A   Clear
10:53 PM 61.0 °F 54.0 °F 78% 29.98 in 10.0 mi North 3.5 mph - N/A   Clear
11:53 PM 59.0 °F 54.0 °F 83% 29.97 in 10.0 mi Calm Calm - N/A   Clear